[[{"header":{"parameterUnit":"m.s-1","parameterCategory":1,"la1":30.2991,"la2":30.254,"lo1":-89.0895,"lo2":-89.0444,"dy":0.0017,"dx":0.0017,"nx":28,"ny":28,"refTime":"2024-10-19T09:00:00:Z","depth":0,"parameterNumber":2,"parameterNumberName":"U-component_of_WINDS"},"data":[0,0,0,0,0,0,0,0,0,0,0,0,0,0,0,0,0,0,0,0,0,0,0,0,0,0,0,0,0,0,0,0,0,0,0,0,0,0,0,0,0,0,0,0,0,0,0,0,0,0,0,0,0,0,0,0,0,0,-2.1503,-2.1503,0,-2.1477,-2.1477,-2.1476,-2.1456,-2.1456,-2.1456,-2.1456,-2.1429,-2.1428,-2.1428,0,0,0,0,0,0,0,0,0,0,0,0,0,-2.1537,-2.1536,-2.1503,-2.1503,-2.1503,-2.1477,-2.1477,-2.1476,-2.1456,-2.1456,-2.1456,-2.1456,-2.1429,-2.1428,-2.1428,0,0,0,0,0,0,0,0,0,0,0,0,0,-2.1518,-2.1536,-2.1503,-2.1489,-2.1488,-2.1477,-2.1477,-2.1476,-2.1456,-2.1456,-2.1456,-2.1455,-2.1429,-2.1428,-2.1428,-2.1428,0,0,-2.1425,-2.1425,0,0,0,0,0,0,0,0,-2.1519,-2.1516,-2.1492,-2.149,-2.1489,-2.147,-2.1479,-2.146,-2.1456,-2.1468,-2.1456,-2.1455,-2.1443,-2.1441,-2.1436,-2.1427,-2.1426,-2.1425,-2.1425,-2.1424,-2.1424,0,0,0,0,0,0,0,-2.152,-2.1517,-2.1493,-2.1492,-2.149,-2.1485,-2.1482,-2.1475,-2.1457,-2.1467,-2.1466,-2.1463,-2.1442,-2.1437,-2.1436,-2.1425,-2.1425,-2.1424,-2.1424,-2.1424,-2.1417,-2.1418,0,0,0,0,0,0,-2.1524,-2.1519,-2.1494,-2.1492,-2.1503,-2.1485,-2.1481,-2.1476,-2.1457,-2.1454,-2.1463,-2.1462,-2.1439,-2.1437,-2.1435,-2.1435,-2.1424,-2.1423,-2.1423,-2.1417,-2.1417,-2.1418,0,0,0,0,0,0,-2.1524,-2.1521,-2.1495,-2.1505,-2.1501,-2.1484,-2.1479,-2.1476,-2.1471,-2.1454,-2.1451,-2.1462,-2.1438,-2.1436,-2.143,-2.1434,-2.1423,-2.1422,-2.1417,-2.1417,-2.1418,-2.1436,0,0,0,0,0,0,-2.1525,-2.1522,-2.1522,-2.1505,-2.1501,-2.1491,-2.1479,-2.1475,-2.147,-2.1468,-2.1452,-2.1449,-2.1438,-2.1432,-2.143,-2.1433,-2.1422,-2.1416,-2.1417,-2.1417,-2.1435,-2.1438,-2.1439,0,0,0,0,0,-2.1527,-2.1528,-2.1522,-2.1519,-2.15,-2.1491,-2.1488,-2.1475,-2.147,-2.147,-2.146,-2.145,-2.1434,-2.1431,-2.1429,-2.1432,-2.1416,-2.1417,-2.1417,-2.1435,-2.1437,-2.1439,0,0,0,0,0,0,-2.1544,-2.1525,-2.1518,-2.1514,-2.1504,-2.1488,-2.1487,-2.1478,-2.147,-2.1469,-2.1453,-2.145,-2.1446,-2.1438,-2.1436,-2.1433,-2.1424,-2.1424,-2.1438,-2.144,-2.1442,-2.1444,-2.1421,0,0,0,0,0,-2.1548,-2.1542,-2.1525,-2.1523,-2.1519,-2.1504,-2.1499,-2.149,-2.148,-2.1475,-2.1464,-2.1455,-2.1448,-2.1443,-2.1436,-2.1434,-2.1431,-2.1435,-2.1437,-2.1439,-2.1439,-2.144,-2.1442,-2.142,-2.142,-2.142,0,0,-2.1555,-2.1544,-2.1541,-2.1526,-2.1518,-2.1513,-2.15,-2.1495,-2.1491,-2.1474,-2.1469,-2.1461,-2.1449,-2.1446,-2.1444,-2.144,-2.1445,-2.144,-2.1441,-2.1441,-2.1441,-2.1443,-2.1445,-2.1421,-2.1421,-2.1421,0,0,-2.1565,-2.1555,-2.1553,-2.1545,-2.1533,-2.1523,-2.1523,-2.1508,-2.1502,-2.1496,-2.1484,-2.148,-2.1467,-2.146,-2.1455,-2.1464,-2.1456,-2.1462,-2.1473,-2.1473,-2.1475,-2.1476,-2.1481,-2.1483,-2.1463,-2.1463,-2.1463,0,-2.1575,-2.1567,-2.1553,-2.1549,-2.1544,-2.1529,-2.1527,-2.152,-2.1506,-2.1503,-2.1498,-2.1483,-2.1474,-2.147,-2.1473,-2.1468,-2.1468,-2.1464,-2.1476,-2.1477,-2.1478,-2.1483,-2.1484,-2.1464,-2.1464,-2.1464,-2.1463,0,-2.158,-2.1575,-2.1575,-2.1562,-2.1557,-2.1554,-2.154,-2.1537,-2.1528,-2.152,-2.1515,-2.1504,-2.1495,-2.1493,-2.1485,-2.1488,-2.1486,-2.1478,-2.147,-2.1481,-2.1486,-2.1487,-2.1465,-2.1465,-2.1465,-2.1464,0,0,-2.16,-2.1581,-2.1582,-2.1576,-2.1562,-2.1558,-2.1555,-2.1546,-2.1544,-2.1535,-2.1533,-2.1524,-2.1518,-2.1512,-2.1502,-2.1503,-2.1513,-2.1495,-2.1495,-2.15,-2.1519,-2.1525,-2.1527,-2.1507,-2.1507,-2.1507,-2.152,0,-2.1609,-2.1603,-2.1591,-2.1589,-2.1584,-2.1571,-2.1569,-2.156,-2.1552,-2.1548,-2.1539,-2.1534,-2.1525,-2.1521,-2.1521,-2.1512,-2.1517,-2.1511,-2.1506,-2.1506,-2.151,-2.1529,-2.1535,-2.1548,-2.1521,-2.1522,-2.1522,0,-2.1618,-2.1611,-2.1608,-2.1596,-2.1594,-2.1592,-2.1584,-2.158,-2.157,-2.1565,-2.1559,-2.1549,-2.1547,-2.1538,-2.1535,-2.1531,-2.1529,-2.1524,-2.1524,-2.1524,-2.1515,-2.153,-2.1551,-2.1553,-2.1524,-2.1524,-2.1523,0,-2.1634,-2.1623,-2.1621,-2.1617,-2.1603,-2.1602,-2.1596,-2.1586,-2.1583,-2.1576,-2.1574,-2.1567,-2.1563,-2.1558,-2.1547,-2.1542,-2.1546,-2.1536,-2.1542,-2.1543,-2.1544,-2.1544,-2.1566,-2.1541,-2.1541,-2.1541,-2.1541,0,-2.1645,-2.1644,-2.1628,-2.1627,-2.1626,-2.1614,-2.1614,-2.1606,-2.1598,-2.1596,-2.1584,-2.1582,-2.1568,-2.1564,-2.1556,-2.1556,-2.1554,-2.155,-2.1548,-2.1552,-2.1552,-2.155,-2.155,-2.1541,-2.1541,-2.1541,-2.1541,0,-2.1663,-2.1652,-2.1649,-2.1636,-2.1633,-2.1633,-2.1623,-2.1621,-2.1613,-2.1611,-2.1609,-2.1597,-2.1593,-2.1581,-2.1574,-2.1569,-2.1571,-2.1566,-2.1574,-2.1573,-2.158,-2.158,-2.1602,-2.1605,-2.1577,-2.1578,-2.1578,0,-2.1671,-2.167,-2.1658,-2.1656,-2.1651,-2.1647,-2.1644,-2.1632,-2.1628,-2.1619,-2.1619,-2.1614,-2.161,-2.1604,-2.1595,-2.159,-2.1586,-2.1594,-2.1585,-2.1589,-2.1587,-2.1588,-2.1589,-2.1596,-2.1596,-2.1596,-2.1597,0,-2.1687,-2.1682,-2.1678,-2.1672,-2.1668,-2.1663,-2.1657,-2.1656,-2.1643,-2.164,-2.1636,-2.1633,-2.1626,-2.1622,-2.1616,-2.161,-2.1602,-2.16,-2.1601,-2.1605,-2.161,-2.1609,-2.1581,-2.1599,-2.1599,-2.1599,-2.1599,-2.1598,-2.1701,-2.1701,-2.1693,-2.1689,-2.1683,-2.1678,-2.1677,-2.167,-2.1666,-2.166,-2.1653,-2.165,-2.1643,-2.1634,-2.1629,-2.1628,-2.1623,-2.1625,-2.1625,-2.1626,-2.1629,-2.161,-2.1626,-2.1626,-2.1626,-2.1626,-2.1626,0,-2.1718,-2.1712,-2.1709,-2.1702,-2.1699,-2.1691,-2.1685,-2.1683,-2.1681,-2.1675,-2.1671,-2.1668,-2.1664,-2.1655,-2.1651,-2.1652,-2.1648,-2.1651,-2.1651,-2.1651,-2.1632,-2.1632,-2.1654,-2.1654,-2.1654,-2.1654,-2.1654,-2.1654,-2.1726,-2.1726,-2.172,-2.1718,-2.1712,-2.171,-2.1707,-2.1703,-2.1698,-2.1695,-2.1692,-2.1687,-2.168,-2.1676,-2.1673,-2.167,-2.167,-2.1675,-2.1671,-2.1654,-2.1652,-2.1649,-2.1649,-2.1674,-2.1674,-2.169,-2.169,-2.169]},{"header":{"parameterUnit":"m.s-1","parameterCategory":1,"la1":30.2991,"la2":30.254,"lo1":-89.0895,"lo2":-89.0444,"dy":0.0017,"dx":0.0017,"nx":28,"ny":28,"refTime":"2024-10-19T09:00:00:Z","depth":0,"parameterNumber":3,"parameterNumberName":"V-component_of_WINDS"},"data":[0,0,0,0,0,0,0,0,0,0,0,0,0,0,0,0,0,0,0,0,0,0,0,0,0,0,0,0,0,0,0,0,0,0,0,0,0,0,0,0,0,0,0,0,0,0,0,0,0,0,0,0,0,0,0,0,0,0,-1.8081,-1.8082,0,-1.809,-1.809,-1.809,-1.811,-1.811,-1.8111,-1.8111,-1.8118,-1.8118,-1.8117,0,0,0,0,0,0,0,0,0,0,0,0,0,-1.8081,-1.8081,-1.8081,-1.8082,-1.8082,-1.809,-1.809,-1.809,-1.811,-1.811,-1.8111,-1.8111,-1.8118,-1.8118,-1.8117,0,0,0,0,0,0,0,0,0,0,0,0,0,-1.8085,-1.8081,-1.8081,-1.8092,-1.8094,-1.809,-1.809,-1.809,-1.811,-1.811,-1.8111,-1.8111,-1.8118,-1.8118,-1.8117,-1.8103,0,0,-1.8117,-1.8116,0,0,0,0,0,0,0,0,-1.8084,-1.8085,-1.8091,-1.8092,-1.8093,-1.81,-1.8093,-1.8095,-1.811,-1.8103,-1.8111,-1.8112,-1.8111,-1.8111,-1.8112,-1.8104,-1.8104,-1.8116,-1.8116,-1.8116,-1.8116,0,0,0,0,0,0,0,-1.8084,-1.8084,-1.8085,-1.8091,-1.8092,-1.8097,-1.8098,-1.8093,-1.8104,-1.8104,-1.8106,-1.8106,-1.8112,-1.8112,-1.8112,-1.8104,-1.8116,-1.8116,-1.8116,-1.8116,-1.8087,-1.8087,0,0,0,0,0,0,-1.8083,-1.8084,-1.8085,-1.8085,-1.809,-1.8096,-1.8098,-1.8097,-1.8104,-1.8106,-1.8106,-1.8107,-1.8112,-1.8112,-1.8112,-1.8098,-1.8116,-1.8116,-1.8116,-1.8088,-1.8087,-1.8087,0,0,0,0,0,0,-1.8082,-1.8082,-1.8084,-1.8085,-1.8086,-1.8096,-1.8095,-1.8097,-1.8097,-1.8105,-1.8107,-1.8104,-1.8113,-1.8113,-1.8106,-1.8098,-1.8116,-1.8115,-1.8089,-1.8088,-1.8087,-1.8068,0,0,0,0,0,0,-1.8082,-1.8082,-1.8077,-1.8085,-1.8085,-1.8078,-1.8094,-1.8096,-1.8096,-1.8098,-1.8104,-1.8105,-1.8113,-1.8106,-1.8106,-1.8098,-1.8115,-1.8089,-1.8088,-1.8087,-1.8069,-1.8067,-1.8064,0,0,0,0,0,-1.8082,-1.807,-1.8077,-1.8076,-1.8079,-1.8077,-1.8078,-1.8087,-1.8096,-1.8091,-1.8096,-1.8105,-1.8099,-1.8106,-1.8105,-1.8097,-1.809,-1.8088,-1.8087,-1.8071,-1.8067,-1.8064,0,0,0,0,0,0,-1.806,-1.8071,-1.8078,-1.8069,-1.8072,-1.8081,-1.8074,-1.8083,-1.8083,-1.8085,-1.8096,-1.8098,-1.809,-1.8093,-1.81,-1.8085,-1.8096,-1.8095,-1.8084,-1.8081,-1.8078,-1.8078,-1.8115,0,0,0,0,0,-1.8054,-1.8052,-1.8062,-1.8052,-1.8054,-1.8064,-1.8063,-1.8071,-1.8074,-1.8076,-1.8081,-1.8084,-1.8083,-1.8082,-1.8081,-1.807,-1.8072,-1.8064,-1.8062,-1.806,-1.8059,-1.8055,-1.8052,-1.8082,-1.8082,-1.8082,0,0,-1.8041,-1.8048,-1.8045,-1.8048,-1.8052,-1.805,-1.8065,-1.8061,-1.806,-1.8075,-1.807,-1.8074,-1.8078,-1.8069,-1.8066,-1.8072,-1.8051,-1.8058,-1.8056,-1.8056,-1.8053,-1.8051,-1.8048,-1.8081,-1.8081,-1.8082,0,0,-1.8018,-1.8022,-1.8016,-1.8019,-1.8025,-1.8032,-1.8031,-1.8038,-1.8042,-1.8037,-1.8049,-1.8047,-1.8045,-1.8048,-1.8049,-1.8029,-1.8038,-1.8028,-1.8015,-1.8011,-1.8009,-1.8007,-1.8002,-1.7999,-1.8027,-1.8027,-1.8027,0,-1.8002,-1.7999,-1.8011,-1.8008,-1.8009,-1.8024,-1.8018,-1.8021,-1.8025,-1.8026,-1.8032,-1.8031,-1.8035,-1.8028,-1.8024,-1.8024,-1.8023,-1.8028,-1.8009,-1.8007,-1.8005,-1.8,-1.7997,-1.8026,-1.8026,-1.8026,-1.8026,0,-1.798,-1.7978,-1.7972,-1.7979,-1.7979,-1.7974,-1.7985,-1.7985,-1.7992,-1.7999,-1.7995,-1.8,-1.8001,-1.8,-1.8007,-1.7995,-1.7999,-1.8007,-1.8018,-1.8001,-1.7996,-1.7994,-1.8024,-1.8025,-1.8025,-1.8025,0,0,-1.7942,-1.7956,-1.7954,-1.7958,-1.7966,-1.7965,-1.7961,-1.7964,-1.7964,-1.7967,-1.7965,-1.7963,-1.7971,-1.7973,-1.798,-1.7977,-1.7963,-1.7985,-1.7986,-1.7982,-1.7952,-1.7947,-1.7945,-1.7969,-1.7968,-1.7968,-1.7953,0,-1.7921,-1.7917,-1.7928,-1.7921,-1.792,-1.7935,-1.7932,-1.7937,-1.7943,-1.7944,-1.795,-1.795,-1.796,-1.7961,-1.7958,-1.7965,-1.7957,-1.7966,-1.7967,-1.7967,-1.7967,-1.7942,-1.7936,-1.7921,-1.7951,-1.795,-1.795,0,-1.7896,-1.79,-1.7894,-1.7904,-1.7905,-1.7902,-1.7906,-1.7906,-1.7912,-1.7917,-1.792,-1.7929,-1.7927,-1.7937,-1.7935,-1.7941,-1.7942,-1.7946,-1.7945,-1.7946,-1.7958,-1.7944,-1.7917,-1.7915,-1.7947,-1.7947,-1.7947,0,-1.7872,-1.7875,-1.7872,-1.7874,-1.7886,-1.7884,-1.7889,-1.7896,-1.7898,-1.7901,-1.7903,-1.7906,-1.7907,-1.7909,-1.792,-1.7926,-1.7916,-1.7927,-1.7921,-1.7921,-1.7919,-1.7919,-1.7893,-1.7918,-1.7918,-1.7918,-1.7918,0,-1.7848,-1.7844,-1.7861,-1.7859,-1.7855,-1.7868,-1.7864,-1.787,-1.7876,-1.7876,-1.7888,-1.7888,-1.7901,-1.7902,-1.7909,-1.7907,-1.7907,-1.7912,-1.7914,-1.7911,-1.7911,-1.7912,-1.7914,-1.7917,-1.7917,-1.7917,-1.7917,0,-1.782,-1.7831,-1.7829,-1.7841,-1.7844,-1.7841,-1.7851,-1.785,-1.7858,-1.7858,-1.7859,-1.787,-1.7872,-1.7883,-1.7886,-1.7892,-1.7887,-1.7891,-1.7886,-1.7887,-1.7881,-1.7882,-1.7856,-1.7854,-1.7879,-1.7878,-1.7878,0,-1.7805,-1.7802,-1.7815,-1.7816,-1.7821,-1.7822,-1.7825,-1.7838,-1.784,-1.7848,-1.7846,-1.7849,-1.7853,-1.7855,-1.7864,-1.7868,-1.7872,-1.7863,-1.7873,-1.7871,-1.7874,-1.7874,-1.7875,-1.7861,-1.7861,-1.786,-1.786,0,-1.7777,-1.7784,-1.7787,-1.7793,-1.7796,-1.78,-1.7806,-1.7806,-1.782,-1.7822,-1.7825,-1.7828,-1.7833,-1.7837,-1.7842,-1.7847,-1.7856,-1.7857,-1.7856,-1.7854,-1.7851,-1.7854,-1.7881,-1.7858,-1.7858,-1.7858,-1.7858,-1.7858,-1.7756,-1.7755,-1.7765,-1.7768,-1.7774,-1.778,-1.778,-1.7789,-1.7792,-1.7798,-1.7805,-1.7807,-1.7815,-1.7823,-1.7828,-1.783,-1.7835,-1.7833,-1.7833,-1.7832,-1.7832,-1.785,-1.7831,-1.7831,-1.7831,-1.7831,-1.7831,0,-1.7731,-1.7738,-1.7741,-1.775,-1.7753,-1.7762,-1.7769,-1.7771,-1.7774,-1.7781,-1.7784,-1.7789,-1.7792,-1.7802,-1.7807,-1.7807,-1.7812,-1.7808,-1.7809,-1.781,-1.7826,-1.7827,-1.7804,-1.7804,-1.7804,-1.7804,-1.7804,-1.7804,-1.7718,-1.7718,-1.7725,-1.7728,-1.7735,-1.7739,-1.7742,-1.7748,-1.7753,-1.7758,-1.7762,-1.7768,-1.7777,-1.7783,-1.7787,-1.779,-1.7791,-1.7787,-1.7791,-1.7806,-1.7808,-1.7811,-1.7812,-1.7787,-1.7787,-1.7775,-1.7775,-1.7775]}]]